Location: Copeville
(33.0796°N, 96.4155°W)
Time: 19:38:25
(UTC+00:00)

Cosmos 1328 Rocket - Pass Details

Date: 10 July 2022
Orbit: 600 x 627 km, 82.5° (Epoch: 17 August)

Event Time Altitude Azimuth Distance (km) Brightness Sun altitude
Rises 06:59:06 0° 15° (NNE) 2,887 8.0 -34.3°
Reaches altitude 10° 07:02:09 10° 37° (NE) 1,971 6.8 -34.2°
Enters shadow 07:03:28 14° 54° (NE) 1,717 6.2 -34.2°
